FW3731 Weather Reports


Display with metric or nautical units.
time (UTC)temp
F
wind
direction
speed
MPH
gust
MPH
rain 1hr
in
rain 24hr
in
rain mn
in
humidity
%
barometer
mb
20260903134508 89 258 0.0 0.0 0.00 0.00 0.00 65 1014.4
20260903133007 89 198 0.0 0.0 0.00 0.00 0.00 65 1014.5
20260903131504 90 347 0.0 0.0 0.00 0.00 0.00 65 1014.5
20260903130004 88 347 0.0 0.0 0.00 0.00 0.00 67 1014.5
20260903124557 87 349 0.0 0.0 0.00 0.00 0.00 70 1014.4
20260903123053 84 349 0.0 0.0 0.00 0.00 0.00 76 1014.4
20260903121550 81 349 0.0 0.0 0.00 0.00 0.00 80 1014.4
20260903120045 79 349 0.0 0.0 0.00 0.00 0.00 80 1014.1
20260903114551 79 349 0.0 0.0 0.00 0.00 0.00 79 1013.9
20260903113044 79 127 0.0 0.0 0.00 0.00 0.00 79 1013.9
20260903111543 79 127 0.0 0.0 0.00 0.00 0.00 78 1013.9
20260903110109 79 127 0.0 0.0 0.00 0.00 0.00 78 1013.7
20260903104540 79 138 0.0 0.0 0.00 0.00 0.00 78 1013.7
20260903103039 79 221 0.0 0.0 0.00 0.00 0.00 78 1013.6
20260903101537 79 134 0.0 0.0 0.00 0.00 0.00 78 1013.5
20260903100037 79 197 0.0 0.0 0.00 0.00 0.00 78 1013.5
20260903094550 79 153 0.0 0.0 0.00 0.00 0.00 79 1013.4
20260903093037 78 216 0.0 0.0 0.00 0.00 0.00 80 1013.4
20260903091534 77 165 0.0 0.0 0.00 0.00 0.00 81 1013.3
20260903090034 77 224 0.0 0.0 0.00 0.00 0.00 81 1013.3
20260903084532 79 199 0.0 0.0 0.00 0.00 0.00 79 1013.3
20260903083024 81 221 0.0 0.0 0.00 0.00 0.00 75 1013.2
20260903081531 82 193 0.0 0.0 0.00 0.00 0.00 73 1013.1
20260903080020 82 165 0.0 0.0 0.00 0.00 0.00 71 1013.0
20260903074519 82 215 0.0 0.0 0.00 0.00 0.00 71 1013.0
20260903073021 82 224 0.0 1.0 0.00 0.00 0.00 70 1013.0
20260903071517 83 217 0.0 1.0 0.00 0.00 0.00 69 1013.0
20260903070022 83 194 0.0 0.0 0.00 0.00 0.00 68 1013.2
20260903064517 83 236 0.0 1.0 0.00 0.00 0.00 68 1013.1
20260903063015 83 203 0.0 1.0 0.00 0.00 0.00 68 1013.1
20260903061514 83 169 0.0 1.0 0.00 0.00 0.00 69 1013.0
20260903060014 83 194 0.0 1.0 0.00 0.00 0.00 69 1013.0
20260903054533 83 172 0.0 1.0 0.00 0.00 0.00 68 1013.0
20260903053010 83 239 0.0 0.0 0.00 0.00 0.00 68 1012.9
20260903051508 82 182 0.0 0.0 0.00 0.00 0.00 68 1012.8
20260903050004 82 193 0.0 0.0 0.00 0.00 0.00 68 1012.8
20260903044503 80 184 0.0 0.0 0.00 0.00 0.00 71 1012.7
20260903043002 78 214 0.0 0.0 0.00 0.00 0.00 75 1012.6
20260903041501 78 214 0.0 0.0 0.00 0.00 0.00 78 1012.6
20260903034600 79 214 0.0 0.0 0.00 0.00 0.00 77 1012.7
20260903033112 80 214 0.0 0.0 0.00 0.00 0.00 76 1012.6
20260903031559 80 162 0.0 0.0 0.00 0.00 0.00 75 1012.6
20260903030100 81 162 0.0 0.0 0.00 0.00 0.00 73 1012.6
20260903024559 82 162 0.0 0.0 0.00 0.00 0.00 74 1012.5
20260903023058 83 162 0.0 0.0 0.00 0.00 0.00 71 1012.3
20260903021607 84 162 0.0 0.0 0.00 0.00 0.00 69 1012.2
20260903020057 85 162 0.0 0.0 0.00 0.00 0.00 68 1012.0
20260903014557 86 158 0.0 0.0 0.00 0.00 0.00 65 1011.9
20260903013104 88 158 0.0 0.0 0.00 0.00 0.00 61 1011.7
20260903011555 89 131 0.0 0.0 0.00 0.00 0.00 60 1011.5
20260903010110 91 130 0.0 0.0 0.00 0.00 0.00 56 1011.3
20260903004558 93 130 0.0 0.0 0.00 0.00 0.00 52 1011.4
20260903003054 95 130 0.0 0.0 0.00 0.00 0.00 49 1011.3
20260903001553 96 130 0.0 0.0 0.00 0.00 0.00 49 1011.3
20260903000058 98 153 0.0 0.0 0.00 0.00 0.00 44 1011.3
20260902234552 99 161 0.0 1.0 0.00 0.00 0.00 41 1011.4
20260902233050 100 205 0.0 0.0 0.00 0.00 0.00 40 1011.3
20260902231551 101 217 0.0 1.0 0.00 0.00 0.00 38 1011.4
20260902230048 102 234 0.0 2.0 0.00 0.00 0.00 38 1011.3
20260902224547 104 233 0.0 0.0 0.00 0.00 0.00 38 1011.4
20260902223051 104 229 0.0 0.0 0.00 0.00 0.00 39 1011.5
20260902221545 103 103 0.0 1.0 0.00 0.00 0.00 39 1011.5
20260902220052 103 232 0.0 1.0 0.00 0.00 0.00 39 1011.5
20260902214543 105 183 0.0 0.0 0.00 0.00 0.00 39 1011.7
20260902213042 103 240 0.0 1.0 0.00 0.00 0.00 41 1011.8
20260902211538 102 154 0.0 1.0 0.00 0.00 0.00 40 1012.0
20260902210040 102 178 0.0 1.0 0.00 0.00 0.00 41 1012.1
20260902203104 102 190 0.0 0.0 0.00 0.00 0.00 42 1012.4
20260902201629 104 102 0.0 1.0 0.00 0.00 0.00 39 1012.6
20260902200105 104 165 0.0 2.0 0.00 0.00 0.00 40 1012.8
20260902194553 104 168 0.0 3.0 0.00 0.00 0.00 39 1013.1
20260902193052 105 234 0.0 1.0 0.00 0.00 0.00 40 1013.2
20260902191552 104 123 0.0 1.0 0.00 0.00 0.00 39 1013.5
20260902190047 105 240 0.0 1.0 0.00 0.00 0.00 39 1013.7
20260902184644 103 139 0.0 3.0 0.00 0.00 0.00 41 1013.9
20260902183046 102 345 0.0 1.0 0.00 0.00 0.00 43 1014.1
20260902181538 100 190 0.0 3.0 0.00 0.00 0.00 44 1014.3
20260902180037 101 217 0.0 2.0 0.00 0.00 0.00 43 1014.4
20260902174534 102 245 0.0 0.0 0.00 0.00 0.00 44 1014.7
20260902173023 100 262 0.0 2.0 0.00 0.00 0.00 48 1014.7
20260902171521 100 241 0.0 1.0 0.00 0.00 0.00 47 1015.0
20260902170017 99 224 0.0 1.0 0.00 0.00 0.00 49 1015.2
20260902164517 98 158 0.0 2.0 0.00 0.00 0.00 49 1015.4
20260902163008 97 216 0.0 2.0 0.00 0.00 0.00 50 1015.5
20260902161505 96 127 0.0 8.0 0.00 0.00 0.00 52 1015.8
20260902160005 96 167 0.0 1.0 0.00 0.00 0.00 53 1015.9
20260902154614 96 244 0.0 1.0 0.00 0.00 0.00 53 1016.0
20260902153100 94 148 0.0 1.0 0.00 0.00 0.00 55 1015.9
20260902151555 93 239 0.0 2.0 0.00 0.00 0.00 58 1016.0
20260902150049 92 248 0.0 1.0 0.00 0.00 0.00 58 1016.1
20260902144550 92 97 0.0 2.0 0.00 0.00 0.00 58 1016.0
20260902143047 92 233 0.0 0.0 0.00 0.00 0.00 59 1016.1
20260902141544 91 157 0.0 0.0 0.00 0.00 0.00 60 1016.2
20260902140042 89 226 0.0 1.0 0.00 0.00 0.00 63 1016.1